Wetbulb
53.03 47.61 43.71 44.79 44.61 42.09 40.30 37.17 36.26 39.52 43.85 42.85 41.70 41.28 44.50 44.00 42.72 42.03 42.59 43.70 45.10 46.83 47.57 49.51 49.92 50.46 51.29 51.30 51.40 51.42 52.74 53.57 58.13 59.28 58.85 58.65 60.25 59.80 59.30 59.41 59.33 58.78 58.37 57.88
48.26 45.09 47.79 47.99 45.07 42.12 40.01 37.38 36.30 40.90 44.25 42.34 40.13 40.99 43.45 41.47 42.10 43.16 44.64 44.32 45.75 46.30 48.04 48.88 49.41 48.94 49.23 49.07 50.34 50.96 51.52 52.36 54.76 57.88 59.13 59.81 59.57 59.82 60.48 60.94 60.80 60.57 59.96 59.62
45.40 47.50 49.67 46.50 42.28 42.19 39.31 36.96 37.14 39.28 42.36 41.96 39.84 38.92 38.28 41.72 42.97 44.01 44.48 45.50 46.32 46.92 47.57 47.81 48.08 48.38 48.29 47.89 47.72 49.94 50.89 52.51 53.14 56.82 58.51 58.54 59.24 58.95 58.86 59.25 59.92 60.92 61.35 61.51
45.88 46.22 46.49 45.10 41.79 40.96 36.34 42.22 42.74 40.92 37.18 33.87 38.77 31.47 34.53 38.93 41.55 42.34 41.93 44.12 45.05 46.43 47.29 47.77 48.30 48.18 48.10 47.89 48.18 49.31 50.06 50.46 51.56 52.73 53.00 53.36 54.24 54.08 56.04 57.06 58.16 58.42 59.39 60.33
44.29 44.23 43.94 42.52 41.98 42.65 40.60 44.48 41.02 39.80 35.15 33.06 34.38 32.94 35.60 39.56 39.59 41.89 42.32 43.10 44.33 45.31 46.71 47.40 47.85 48.91 48.36 48.32 48.07 48.74 49.72 50.42 49.70 49.23 49.62 49.59 49.18 51.78 53.23 53.31 52.57 53.41 55.22 56.58
42.45 46.16 44.16 43.04 44.37 44.28 44.97 40.59 38.82 36.28 34.36 29.49 34.06 34.80 33.97 37.04 40.74 41.11 41.68 43.04 44.76 45.47 46.29 47.14 47.84 48.90 48.34 48.02 48.49 48.74 49.36 49.20 49.38 49.31 48.68 48.04 47.53 47.72 48.46 48.41 49.47 50.21 51.97 54.03
40.91 40.06 40.89 44.26 39.97 40.70 40.05 35.63 30.24 29.14 28.57 29.10 33.69 32.61 36.79 40.70 42.32 45.35 43.62 43.33 43.96 45.22 46.04 46.51 46.32 47.10 47.51 47.36 47.62 49.07 48.76 48.48 48.53 48.40 48.46 48.24 47.92 47.76 47.40 47.29 47.53 48.03 49.31 49.70
34.26 34.09 39.02 41.81 40.82 38.41 37.15 36.66 31.25 27.84 27.14 31.00 34.35 31.28 37.14 40.24 43.07 45.18 45.62 44.80 44.58 45.10 45.80 46.35 46.26 46.69 46.98 47.59 47.52 47.37 47.67 47.72 48.17 48.22 48.28 48.32 48.65 48.68 48.59 48.08 47.94 48.21 48.39 49.01
35.05 33.70 39.84 41.39 40.99 41.80 37.29 35.12 38.45 34.18 31.58 30.44 33.39 36.61 38.53 41.67 42.02 43.60 43.67 43.97 43.56 44.61 45.48 46.22 46.25 46.74 47.11 46.64 45.82 46.43 47.10 47.42 47.80 47.97 48.17 48.23 48.19 48.37 48.18 48.03 48.24 48.45 48.81 50.55
38.82 32.19 38.51 39.69 41.15 39.25 38.52 40.42 34.06 33.30 28.21 26.18 30.14 31.38 34.79 36.98 39.78 42.22 42.60 42.85 43.35 43.94 45.10 45.86 46.29 46.61 46.06 45.70 45.70 46.52 47.25 47.29 47.53 47.70 47.49 47.97 47.83 47.83 47.57 47.26 46.82 47.06 47.69 48.04
41.24 37.16 35.38 38.27 36.96 36.97 36.94 34.76 34.69 34.71 32.78 28.60 26.25 31.22 37.95 38.76 40.64 42.60 43.19 43.85 44.03 43.67 44.55 45.09 45.76 45.35 45.37 45.45 46.05 46.46 46.59 45.89 45.54 46.23 46.24 45.75 46.64 46.40 45.74 45.21 45.36 45.28 45.37 45.62
42.98 37.82 32.93 35.57 39.23 40.54 38.44 38.04 36.07 31.54 30.26 29.86 28.48 31.80 40.13 38.47 40.80 42.17 43.44 44.72 43.54 44.45 44.88 44.94 44.06 44.78 45.03 44.88 45.05 44.40 43.99 43.01 43.10 44.13 43.95 43.72 44.82 43.76 42.78 42.44 42.86 43.54 43.04 43.73
44.22 38.30 32.47 33.72 37.33 39.12 37.75 38.69 37.62 36.63 34.85 31.82 29.40 32.35 40.80 41.23 40.18 41.96 42.79 43.08 43.88 44.43 44.36 42.64 42.64 43.81 44.23 43.73 43.38 42.44 41.67 41.09 41.72 42.14 41.77 41.37 41.57 39.94 39.04 39.57 40.48 41.01 41.07 41.46
45.85 38.27 36.29 34.47 35.46 38.16 36.49 39.14 38.70 36.52 31.27 31.67 32.19 33.73 37.22 39.47 41.28 42.62 43.64 44.92 42.91 44.51 43.04 41.31 41.70 43.08 42.69 42.15 41.15 39.80 39.47 39.58 40.00 40.21 39.33 39.37 37.64 37.13 37.46 38.00 38.15 38.37 39.04 38.97
41.89 36.19 36.41 36.70 37.96 37.70 38.00 38.19 38.68 36.60 35.09 33.51 33.76 35.61 37.58 40.04 40.78 42.32 42.28 41.97 43.04 41.93 41.26 40.99 42.17 41.12 40.40 39.32 38.23 37.40 37.18 37.32 37.97 37.02 36.94 36.24 36.25 36.02 35.94 35.84 35.89 36.42 36.70 36.75
41.44 36.14 36.36 33.70 36.95 36.53 34.92 36.42 36.51 36.93 37.82 37.48 36.91 37.65 41.53 42.32 40.32 41.27 39.49 41.55 41.70 40.64 40.62 43.18 42.30 39.18 37.89 36.64 35.88 36.04 35.35 35.64 35.82 34.50 34.38 34.26 33.51 33.38 33.23 33.45 33.77 34.04 34.05 34.19
38.83 36.00 33.42 29.59 34.86 35.43 32.50 34.99 34.81 33.93 35.00 35.99 32.62 37.02 40.27 40.40 42.12 41.16 40.95 41.57 40.88 39.47 42.41 41.79 39.58 38.80 37.84 35.56 35.18 33.92 33.79 34.01 32.80 32.98 31.78 31.78 31.83 31.41 31.54 32.05 32.10 31.82 31.66 32.53
36.55 34.12 32.74 29.35 31.13 25.85 34.09 38.36 39.68 37.20 37.88 37.92 38.49 39.81 40.21 40.85 39.95 39.65 40.45 41.70 39.19 41.81 40.86 39.45 37.93 36.62 35.60 34.31 33.67 32.81 32.51 30.77 30.09 30.07 29.81 30.66 30.68 30.22 30.55 30.39 30.12 30.03 30.67 30.46
37.18 34.00 30.48 28.76 28.00 32.88 35.83 38.06 37.93 36.83 35.89 39.49 39.51 39.78 40.77 40.94 38.74 38.37 40.89 40.43 40.19 39.84 39.07 37.78 36.78 35.97 33.91 32.74 31.37 30.22 28.84 28.04 28.49 28.69 28.73 29.63 29.69 29.26 29.36 28.74 28.73 29.35 29.42 29.46
36.29 35.27 32.62 25.14 24.91 26.41 33.87 38.81 40.70 38.73 30.66 39.95 40.55 40.07 40.55 40.18 35.27 37.38 39.88 40.88 40.42 39.26 38.11 36.86 36.25 35.97 32.66 30.15 28.83 27.61 26.75 26.32 26.64 27.77 28.50 28.97 29.14 28.77 28.04 28.07 28.06 29.23 29.10 29.43
30.18 30.20 28.73 29.17 26.79 30.54 37.19 40.03 40.50 30.59 30.53 39.51 40.41 40.01 39.89 38.75 39.37 39.50 40.57 38.88 38.21 37.73 38.09 36.98 34.51 32.89 30.63 28.25 27.29 26.26 25.68 25.14 26.71 27.89 28.18 28.30 28.33 27.78 28.02 28.31 28.46 28.23 27.98 28.44
30.97 27.90 28.03 28.66 25.94 24.22 39.02 39.14 35.31 37.38 39.15 39.03 39.32 39.02 38.71 39.42 40.02 39.44 39.03 38.06 38.02 36.88 34.99 34.29 30.69 31.59 30.71 30.07 27.08 25.15 23.98 26.16 26.61 26.93 27.29 27.36 27.19 28.13 29.26 26.91 27.10 27.30 27.06 26.42
31.60 34.84 32.74 32.47 31.40 38.55 38.82 39.44 40.02 40.99 39.68 38.37 38.67 39.00 39.68 40.17 39.70 39.98 38.73 38.71 38.64 36.00 33.58 32.71 31.51 30.65 30.27 27.79 25.69 24.13 25.05 25.76 26.15 25.39 25.55 26.17 26.95 26.83 27.04 25.74 26.08 25.93 26.41 25.61
34.20 37.10 35.21 35.75 36.60 37.43 38.72 38.65 39.17 39.96 39.98 40.43 39.69 39.09 39.09 38.48 39.59 38.72 37.68 36.66 36.31 34.18 31.62 31.36 30.21 28.88 26.80 26.57 26.10 25.11 25.33 25.89 25.21 24.22 24.78 25.52 25.25 26.61 26.50 26.88 26.87 25.77 24.86 25.20
35.73 36.24 35.32 34.85 37.63 37.76 37.79 38.81 39.13 39.14 39.25 38.38 38.07 38.29 38.62 37.57 36.20 35.04 35.73 36.23 34.49 31.82 31.07 30.09 28.50 25.98 25.07 24.69 24.37 24.88 25.62 25.10 23.81 23.83 24.20 25.15 25.75 25.29 25.47 26.30 25.77 25.57 26.80 28.31
36.49 35.93 34.08 32.94 37.47 37.30 37.05 38.35 39.33 38.21 37.98 38.70 37.68 36.31 34.99 34.75 34.90 35.32 35.05 32.34 30.16 29.85 29.40 26.61 25.13 24.15 23.85 23.55 23.51 24.32 25.27 24.73 23.70 24.14 24.90 25.02 25.52 25.07 25.50 24.78 24.73 29.92 31.14 32.18
MSLP
1013.14 1012.99 1012.94 1013.57 1013.47 1013.62 1013.85 1014.04 1013.50 1012.05 1010.77 1010.60 1010.33 1010.23 1009.74 1009.50 1009.81 1010.27 1010.78 1010.90 1010.97 1010.91 1010.84 1010.75 1010.54 1010.25 1009.87 1009.36 1008.82 1008.60 1008.46 1008.39 1008.48 1009.09 1009.48 1009.72 1009.63 1009.64 1009.55 1009.46 1009.42 1009.57 1009.63 1009.70
1013.33 1012.74 1012.83 1013.18 1013.25 1013.66 1013.77 1013.86 1013.09 1011.70 1010.78 1010.46 1010.23 1010.23 1009.82 1009.82 1010.11 1010.34 1010.85 1011.14 1011.03 1011.08 1011.01 1011.05 1011.05 1010.97 1010.64 1010.29 1009.77 1009.34 1009.03 1008.57 1008.24 1008.54 1008.82 1009.11 1009.35 1009.49 1009.45 1009.31 1009.35 1009.23 1009.25 1009.18
1011.43 1011.59 1012.41 1012.50 1013.06 1013.53 1013.53 1013.45 1012.88 1012.20 1011.34 1010.77 1010.70 1010.51 1010.10 1010.22 1010.36 1010.74 1010.92 1010.90 1011.19 1011.39 1011.55 1011.77 1011.75 1011.68 1011.39 1010.98 1010.60 1010.14 1009.81 1009.38 1008.95 1008.65 1008.80 1009.09 1009.25 1009.48 1009.55 1009.54 1009.39 1009.11 1008.91 1008.72
1011.29 1011.20 1011.69 1012.25 1012.46 1012.77 1012.86 1012.28 1012.30 1012.06 1012.14 1011.95 1011.44 1011.41 1010.79 1010.68 1010.81 1011.11 1011.23 1011.25 1011.43 1011.78 1012.06 1012.32 1012.31 1012.07 1011.94 1011.59 1011.02 1010.75 1010.50 1010.29 1010.02 1009.61 1009.65 1009.88 1010.17 1010.27 1010.12 1009.91 1009.58 1009.17 1008.84 1008.61
1010.54 1010.51 1011.18 1011.63 1011.44 1012.05 1012.02 1011.67 1011.96 1012.28 1012.63 1012.54 1012.20 1012.37 1010.67 1010.86 1011.19 1011.31 1011.42 1011.52 1011.77 1012.18 1012.43 1012.63 1012.65 1012.45 1012.31 1011.88 1011.58 1011.45 1011.15 1010.88 1010.71 1010.48 1010.50 1010.65 1010.68 1010.70 1010.47 1010.18 1009.85 1009.39 1009.01 1008.76
1010.61 1010.34 1010.86 1010.60 1010.81 1011.14 1011.27 1011.87 1012.51 1013.15 1013.39 1013.16 1012.06 1012.07 1010.76 1010.63 1009.87 1010.88 1011.42 1011.67 1011.93 1012.47 1012.61 1012.71 1012.73 1012.56 1012.50 1012.22 1012.09 1011.96 1011.75 1011.68 1011.44 1011.29 1011.22 1011.27 1011.29 1011.18 1010.92 1010.70 1010.50 1010.20 1009.66 1009.16
1010.93 1010.37 1010.04 1010.16 1010.78 1010.97 1011.40 1012.49 1013.53 1014.15 1014.04 1012.89 1011.92 1011.99 1009.69 1009.39 1009.10 1009.37 1010.81 1011.60 1012.02 1012.41 1012.54 1012.83 1012.95 1012.88 1012.88 1012.79 1012.53 1012.39 1012.35 1012.47 1012.30 1012.07 1011.91 1011.81 1011.78 1011.69 1011.61 1011.43 1011.16 1010.75 1010.25 1009.73
1010.93 1010.99 1010.27 1009.69 1009.83 1010.52 1011.48 1012.06 1012.93 1013.25 1013.40 1012.50 1011.92 1011.13 1009.10 1008.60 1008.73 1009.50 1010.39 1011.15 1011.93 1012.39 1012.48 1012.75 1012.96 1012.98 1012.98 1012.94 1012.91 1012.94 1012.93 1012.98 1012.87 1012.64 1012.50 1012.29 1012.16 1012.07 1011.94 1011.74 1011.44 1011.11 1010.68 1010.11
1010.30 1010.24 1009.82 1009.71 1009.53 1010.07 1011.13 1011.70 1011.87 1012.55 1012.79 1012.68 1011.46 1010.14 1008.86 1008.91 1009.25 1010.03 1010.82 1011.44 1012.03 1012.34 1012.55 1012.85 1012.95 1013.03 1013.17 1013.52 1013.59 1013.54 1013.50 1013.53 1013.44 1013.33 1013.06 1012.95 1012.74 1012.50 1012.35 1011.99 1011.64 1011.30 1010.83 1010.32
1008.92 1010.28 1010.18 1010.02 1009.75 1010.16 1010.37 1011.03 1011.97 1012.56 1012.95 1012.84 1011.62 1010.62 1009.59 1009.98 1010.15 1010.51 1011.22 1011.57 1012.10 1012.43 1012.68 1012.90 1013.15 1013.38 1013.76 1013.88 1014.05 1014.02 1014.10 1014.09 1013.97 1013.65 1013.43 1013.26 1013.05 1012.78 1012.52 1012.20 1011.94 1011.56 1011.10 1010.53
1008.51 1009.35 1010.65 1010.21 1010.08 1010.22 1010.84 1011.01 1011.53 1012.12 1012.47 1012.68 1012.27 1010.57 1009.20 1009.49 1009.79 1010.11 1010.89 1011.44 1011.78 1012.28 1012.81 1013.14 1013.44 1013.89 1014.17 1014.39 1014.48 1014.57 1014.53 1014.41 1014.16 1013.94 1013.72 1013.52 1013.37 1013.13 1012.89 1012.58 1012.19 1011.72 1011.17 1010.58
1008.11 1009.24 1010.60 1010.50 1010.15 1010.18 1010.29 1010.54 1011.00 1011.96 1012.67 1012.90 1012.29 1010.29 1009.10 1009.23 1009.52 1010.02 1010.58 1010.96 1011.70 1012.38 1012.94 1013.51 1013.91 1014.27 1014.67 1014.89 1014.83 1014.85 1014.84 1014.73 1014.64 1014.34 1014.11 1013.88 1013.56 1013.22 1012.90 1012.55 1012.15 1011.70 1011.21 1010.65
1008.01 1009.16 1010.53 1010.80 1010.79 1010.50 1010.38 1010.39 1010.79 1011.30 1012.07 1012.30 1012.05 1010.37 1009.32 1009.14 1009.68 1010.10 1010.68 1011.44 1011.92 1012.58 1013.27 1013.88 1014.27 1014.66 1014.97 1015.14 1015.21 1015.26 1015.24 1015.22 1014.99 1014.70 1014.47 1014.19 1014.02 1013.78 1013.41 1012.93 1012.40 1011.85 1011.27 1010.73
1007.76 1008.83 1009.30 1009.59 1009.51 1009.57 1010.27 1010.27 1010.64 1011.06 1011.98 1011.53 1011.08 1010.30 1009.79 1009.74 1010.05 1010.35 1010.72 1011.02 1011.90 1012.87 1013.44 1014.03 1014.65 1015.05 1015.23 1015.41 1015.59 1015.68 1015.69 1015.53 1015.22 1014.89 1014.77 1014.61 1014.36 1014.07 1013.69 1013.24 1012.67 1012.06 1011.49 1010.86
1008.14 1008.97 1009.36 1009.48 1009.45 1009.53 1009.78 1009.92 1010.27 1010.78 1010.84 1010.88 1010.51 1010.24 1009.93 1009.98 1010.14 1010.30 1010.53 1011.11 1012.23 1013.00 1013.73 1014.35 1014.99 1015.56 1015.76 1015.87 1015.96 1015.96 1015.86 1015.66 1015.56 1015.48 1015.32 1015.09 1014.68 1014.23 1013.83 1013.35 1012.85 1012.33 1011.77 1011.15
1008.97 1009.89 1009.96 1010.27 1010.02 1009.90 1009.97 1009.94 1010.18 1010.47 1010.50 1010.42 1010.34 1009.83 1009.39 1009.60 1009.89 1010.29 1010.84 1011.70 1012.46 1013.20 1014.00 1014.77 1015.38 1015.80 1015.96 1015.99 1015.97 1015.94 1016.02 1016.02 1015.92 1015.71 1015.51 1015.20 1014.81 1014.45 1014.11 1013.64 1013.07 1012.49 1012.02 1011.36
1009.74 1010.28 1010.86 1011.16 1010.79 1010.34 1010.05 1009.44 1009.56 1009.77 1009.91 1009.98 1010.06 1009.60 1009.63 1009.90 1010.52 1011.17 1011.57 1012.13 1012.83 1013.63 1014.34 1014.95 1015.52 1015.96 1016.11 1016.16 1016.11 1016.28 1016.36 1016.28 1016.17 1016.08 1015.79 1015.39 1015.07 1014.75 1014.34 1013.91 1013.45 1012.81 1012.17 1011.43
1010.69 1011.36 1011.94 1012.24 1011.71 1010.91 1009.55 1008.99 1008.89 1009.30 1009.61 1009.70 1010.00 1010.16 1010.33 1010.73 1011.30 1011.66 1012.05 1012.51 1013.32 1014.05 1014.92 1015.62 1015.94 1016.18 1016.45 1016.58 1016.54 1016.64 1016.75 1016.77 1016.55 1016.19 1015.83 1015.49 1015.19 1014.87 1014.50 1013.96 1013.53 1012.97 1012.22 1011.69
1011.18 1011.96 1012.97 1013.17 1012.75 1011.06 1009.79 1009.26 1009.07 1009.06 1010.48 1010.29 1010.44 1010.63 1010.79 1011.15 1011.81 1012.21 1012.55 1012.93 1013.69 1014.51 1015.26 1015.73 1016.06 1016.42 1016.79 1017.02 1016.80 1016.71 1016.93 1016.80 1016.48 1016.20 1015.91 1015.60 1015.32 1014.87 1014.48 1013.99 1013.48 1012.92 1012.28 1011.73
1012.09 1012.31 1013.18 1013.85 1013.40 1011.77 1010.18 1009.35 1009.13 1009.31 1010.66 1010.95 1010.91 1011.22 1011.60 1011.94 1012.78 1012.93 1013.28 1013.53 1014.20 1014.82 1015.46 1015.89 1016.36 1016.63 1016.99 1017.19 1017.03 1017.04 1017.07 1016.85 1016.63 1016.33 1016.05 1015.57 1015.28 1014.98 1014.57 1014.17 1013.64 1012.83 1012.41 1011.58
1013.33 1013.75 1014.09 1014.20 1013.66 1011.96 1010.33 1009.71 1009.63 1010.52 1011.75 1011.38 1011.42 1011.57 1011.84 1012.61 1013.15 1013.27 1013.69 1014.36 1014.86 1015.12 1015.51 1015.90 1016.55 1016.73 1016.89 1016.99 1017.02 1017.14 1017.21 1017.15 1016.80 1016.45 1016.06 1015.64 1015.27 1015.00 1014.56 1013.94 1013.38 1012.71 1012.12 1011.30
1012.97 1013.73 1014.18 1014.24 1013.91 1012.39 1010.45 1010.21 1010.47 1011.21 1011.47 1011.62 1011.70 1011.96 1012.39 1012.82 1013.35 1013.69 1013.94 1014.24 1014.59 1015.17 1015.77 1016.05 1016.48 1016.50 1016.73 1016.97 1017.16 1017.40 1017.47 1017.12 1016.75 1016.36 1015.95 1015.47 1015.08 1014.80 1014.20 1013.80 1013.12 1012.61 1011.94 1011.11
1012.59 1012.21 1012.39 1012.41 1011.79 1011.08 1010.57 1010.66 1010.92 1011.18 1011.65 1011.86 1012.04 1012.19 1012.42 1012.94 1013.44 1013.79 1014.38 1014.88 1015.17 1015.65 1016.05 1016.38 1016.39 1016.66 1016.96 1017.20 1017.38 1017.60 1017.33 1016.93 1016.55 1016.18 1015.73 1015.28 1014.80 1014.44 1013.96 1013.55 1013.00 1012.31 1011.65 1011.10
1011.92 1011.61 1011.86 1011.78 1011.22 1011.35 1011.29 1011.30 1011.43 1011.55 1011.87 1011.95 1012.06 1012.32 1012.80 1013.31 1013.54 1013.97 1014.35 1014.88 1015.46 1016.04 1016.41 1016.50 1016.72 1017.12 1017.32 1017.38 1017.43 1017.35 1016.99 1016.54 1016.35 1016.00 1015.53 1015.04 1014.61 1014.15 1013.67 1013.23 1012.79 1012.09 1011.50 1010.80
1011.85 1011.71 1011.72 1011.68 1011.33 1011.43 1011.85 1011.78 1011.94 1012.19 1012.31 1012.41 1012.65 1012.99 1013.31 1013.52 1013.78 1014.29 1014.85 1015.29 1015.62 1016.08 1016.36 1016.60 1017.02 1017.35 1017.53 1017.47 1017.29 1016.98 1016.56 1016.32 1016.16 1015.79 1015.23 1014.69 1014.30 1013.83 1013.30 1012.82 1012.38 1011.71 1011.12 1010.60
1011.54 1011.07 1011.42 1011.52 1011.36 1011.55 1011.96 1012.01 1012.15 1012.59 1013.00 1013.22 1013.42 1013.44 1013.70 1014.02 1014.38 1014.80 1015.27 1015.61 1015.98 1016.26 1016.48 1016.84 1017.25 1017.47 1017.39 1017.18 1016.85 1016.44 1016.16 1016.11 1015.82 1015.32 1014.86 1014.48 1013.96 1013.33 1012.89 1012.38 1011.48 1011.12 1010.53 1009.79
Wind_Speed
11 5 10 12 9 5 4 3 5 8 9 8 9 6 11 2 5 8 6 6 5 5 1 5 7 8 8 8 9 8 7 4 4 2 2 2 7 4 4 5 6 6 7 7
6 17 12 9 6 5 5 7 9 10 4 1 1 8 8 3 4 5 8 6 5 4 7 8 8 8 9 7 8 8 8 8 2 1 1 2 1 3 3 3 5 6 6 8
8 8 12 9 5 9 7 8 6 6 6 5 1 7 2 3 3 4 3 4 5 6 7 8 9 8 8 9 9 9 8 8 8 5 2 2 2 1 3 2 3 4 7 8
6 6 15 11 11 8 8 9 8 3 2 3 2 5 3 4 5 3 5 5 6 7 6 6 7 8 8 8 8 9 9 9 9 9 7 7 3 2 2 3 3 5 5 7
8 13 15 12 10 9 10 6 2 0 1 3 2 1 7 6 6 7 7 7 6 6 6 6 6 6 6 7 8 8 8 11 9 9 7 5 5 2 2 3 6 6 6 6
3 7 9 10 5 7 6 4 7 5 2 2 8 7 6 9 11 6 4 6 8 7 6 5 4 6 6 7 7 7 8 9 9 9 9 9 9 7 7 6 6 5 5 5
5 3 1 5 5 2 6 6 1 2 1 7 1 3 10 9 9 15 12 9 8 7 6 5 5 5 5 7 7 6 8 8 8 8 9 8 8 8 7 6 4 6 5 5
6 10 8 5 7 8 6 8 6 7 5 4 1 6 8 5 4 9 10 9 8 7 6 6 5 4 4 6 7 8 8 9 8 8 8 7 8 4 4 5 4 4 4 5
8 4 1 1 3 7 5 4 4 2 2 2 4 7 3 7 8 10 10 8 8 7 7 7 5 4 4 8 7 7 8 7 8 8 7 8 7 7 6 7 6 4 6 9
5 5 1 2 3 2 4 5 2 2 3 4 4 5 5 2 7 8 8 9 7 6 6 5 4 3 6 7 6 8 7 7 6 7 6 6 6 7 6 6 8 9 10 10
6 5 2 3 4 7 2 2 2 3 4 4 2 7 6 8 9 13 9 8 9 8 7 6 3 6 7 6 7 6 6 7 8 7 6 7 6 6 6 6 7 8 9 10
2 6 5 3 1 1 3 7 5 5 3 1 3 7 4 1 7 8 10 9 5 6 7 5 6 7 7 6 6 6 6 7 6 6 6 6 6 8 9 10 11 11 11 12
5 3 5 3 4 2 4 4 4 4 3 5 5 6 5 6 6 2 6 5 7 6 7 7 7 6 6 5 6 6 6 6 6 6 7 7 7 8 9 9 11 12 12 13
3 3 5 7 4 5 5 5 5 5 4 4 6 2 1 2 4 4 5 8 6 7 8 7 6 6 5 5 6 6 6 5 5 6 6 6 6 7 8 9 11 12 13 13
3 4 3 3 3 3 4 6 8 7 4 6 1 5 3 6 6 8 9 5 9 8 7 7 6 5 4 5 5 4 4 6 6 6 6 6 6 7 8 10 11 12 12 12
3 3 2 2 4 2 3 5 6 5 4 6 2 11 5 6 4 2 2 7 8 8 7 7 6 5 4 3 3 4 5 5 4 5 5 6 8 9 10 11 12 13 13 14
3 4 3 2 4 5 5 6 6 4 4 6 5 6 5 5 5 5 3 6 8 7 7 7 6 5 4 3 3 4 5 5 6 5 5 8 9 10 11 11 12 12 13 14
5 4 3 2 2 2 1 4 6 5 3 3 4 6 3 3 3 3 4 8 9 8 6 5 4 3 3 1 3 2 5 5 5 5 6 8 10 10 11 11 12 12 11 13
4 5 4 4 3 6 2 3 3 4 2 2 4 1 0 3 3 4 3 3 5 6 6 5 4 3 2 1 3 5 4 4 6 7 8 9 9 11 12 12 13 12 12 13
6 6 5 3 3 6 3 2 2 2 2 3 2 3 2 1 4 5 3 5 8 7 5 4 3 2 3 4 5 5 6 6 7 7 8 8 8 10 11 12 12 11 12 14
3 3 5 3 2 8 6 6 1 4 4 3 3 4 6 2 4 1 7 5 5 6 6 5 3 3 4 4 5 6 6 6 6 7 7 7 7 9 10 10 10 12 12 13
7 6 4 3 2 8 2 1 3 4 2 3 4 3 3 3 4 4 6 9 8 5 4 4 2 3 3 4 5 6 6 6 7 7 8 8 8 8 9 11 10 11 12 12
3 6 6 8 7 1 3 5 3 4 4 3 2 3 3 6 7 8 4 3 4 3 3 3 3 1 3 4 3 5 6 6 7 6 8 8 9 8 8 8 11 10 10 10
2 2 2 2 1 6 4 2 1 4 5 6 4 3 1 4 5 7 6 5 4 3 3 2 1 3 4 4 5 5 6 6 6 8 9 8 8 10 8 7 8 8 9 9
6 2 2 3 6 3 4 4 6 5 4 2 2 4 6 4 2 2 3 4 5 5 3 2 1 3 5 5 6 6 6 6 7 7 7 8 7 8 9 9 8 9 9 10
5 7 5 5 4 4 3 1 2 3 3 7 8 4 2 2 2 3 3 3 4 3 2 1 3 3 6 6 7 6 6 6 7 9 8 8 8 7 8 9 11 17 21 24
Wind_Direction
193 158 189 193 189 187 169 253 275 272 264 168 210 234 259 282 101 113 122 118 108 91 12 34 22 8 3 18 26 23 29 350 164 150 167 219 223 222 229 225 234 218 220 223
154 212 193 187 192 203 247 281 286 286 290 213 213 263 277 137 166 157 150 140 114 76 39 24 17 12 17 14 16 24 24 12 27 138 133 154 187 242 237 223 237 236 231 231
187 162 174 186 175 211 226 219 249 230 324 331 75 303 196 10 101 141 131 135 102 84 59 28 17 12 9 23 14 26 22 20 21 39 105 93 84 29 10 337 281 257 247 250
188 156 174 199 215 166 234 220 234 255 41 240 66 275 281 222 191 160 160 117 95 74 54 40 24 24 18 13 22 32 28 29 31 26 47 53 57 27 324 302 312 305 285 272
194 158 177 194 212 176 227 188 161 168 92 28 296 77 268 140 229 211 209 147 123 91 86 61 43 38 26 23 27 24 28 33 26 42 53 58 48 14 311 343 358 355 346 350
122 159 161 191 182 189 153 90 38 45 73 314 223 165 262 189 209 193 195 172 142 125 113 95 62 46 36 27 32 30 34 26 23 30 29 37 36 15 18 3 4 350 343 343
349 193 185 144 116 62 84 80 338 330 333 226 158 128 251 213 199 186 168 173 161 151 139 111 91 65 48 39 32 30 38 32 23 34 34 29 29 31 29 12 1 359 353 344
178 165 185 189 168 169 181 156 162 205 199 242 49 232 252 243 117 120 147 152 161 157 138 141 135 114 63 39 32 34 42 39 28 27 24 23 27 23 17 5 348 350 349 327
151 242 66 112 125 130 190 179 194 132 13 42 227 284 315 34 95 125 141 154 167 169 169 160 144 99 68 46 41 59 58 43 30 26 22 22 17 19 11 1 359 347 343 342
186 112 241 168 104 36 138 169 92 351 192 243 289 277 248 148 154 142 161 174 185 186 166 150 144 131 68 77 61 54 48 48 28 26 24 20 11 9 4 2 358 352 343 339
145 108 217 105 192 172 123 233 90 133 139 186 260 269 216 206 192 172 183 190 191 180 175 173 150 82 92 72 60 56 45 36 26 20 10 12 5 358 355 357 345 342 335 336
174 117 122 194 285 203 199 194 152 133 217 177 153 273 320 325 182 157 195 203 175 174 173 132 106 105 87 80 67 55 39 33 14 5 5 3 8 7 5 357 350 346 342 340
180 107 98 46 358 305 215 198 153 111 100 205 147 261 339 49 147 176 146 182 198 161 131 122 108 104 103 85 68 54 38 19 5 3 5 7 11 1 352 348 346 344 341 338
107 119 161 180 186 142 186 181 177 147 143 203 215 217 249 230 177 186 199 217 159 152 150 135 118 112 96 77 65 47 28 11 360 6 360 9 359 349 344 342 344 343 340 336
89 115 95 88 110 117 181 182 190 190 181 188 199 205 217 245 240 238 240 166 150 161 158 133 128 118 103 81 59 43 21 13 6 359 0 351 340 343 341 343 339 335 334 332
12 130 120 44 13 53 254 254 240 222 214 269 352 294 202 258 289 238 247 148 164 165 140 130 129 123 101 99 83 48 21 3 356 355 352 340 351 348 345 340 337 335 332 330
62 109 85 217 337 323 284 211 211 181 176 169 212 243 24 342 33 44 216 176 166 149 149 145 134 139 144 121 67 32 360 353 359 354 348 355 350 344 338 333 330 328 326 323
122 97 85 170 2 287 226 302 207 161 118 231 332 322 344 74 122 15 354 169 163 153 126 124 143 107 95 46 48 24 16 360 346 351 354 350 344 337 329 329 325 322 322 321
58 113 96 138 204 300 81 345 120 152 47 31 108 28 330 127 89 314 339 76 112 113 133 147 161 154 129 56 34 32 2 350 359 355 347 340 333 330 328 326 323 319 318 314
57 73 107 74 145 217 222 245 280 100 147 357 308 18 294 41 355 263 155 117 117 120 138 141 130 102 68 19 25 24 0 356 345 333 325 326 322 320 318 313 309 312 310 310
67 42 151 157 231 293 248 254 233 116 219 7 65 23 22 331 230 209 127 100 121 150 151 120 122 104 57 39 22 9 351 336 311 308 307 307 311 309 303 309 312 307 307 309
161 138 186 108 164 265 287 4 175 178 54 72 44 32 82 145 151 155 157 173 177 139 122 118 106 67 46 22 22 342 324 300 305 304 307 309 305 301 309 306 306 307 309 311
198 183 182 178 212 204 355 112 133 131 138 178 179 230 169 184 200 190 192 159 158 138 114 111 84 17 9 5 360 319 294 305 306 305 302 300 303 300 298 301 309 308 311 311
271 169 206 114 149 143 128 76 143 171 187 209 213 210 283 253 224 186 175 160 138 123 143 132 63 343 327 322 309 284 295 304 307 303 302 298 298 308 311 301 304 307 307 308
212 126 169 264 290 109 148 206 196 223 234 244 250 225 241 259 262 117 140 164 150 159 150 91 327 307 297 303 301 299 301 309 304 294 290 301 301 306 309 304 306 303 300 304
199 186 172 229 233 146 237 151 185 183 219 234 224 240 40 19 194 150 168 151 151 135 111 331 302 295 290 294 292 300 295 284 285 305 309 304 308 303 307 307 307 302 306 314